Location: Byhalia Creek
(34.8270°N, 89.8040°W)
Time: 18:50:33
(UTC+00:00)

Cosmos 2366 rocket - Pass Details

Date: 22 April 2026
Orbit: 954 x 996 km, 82.9° (Epoch: 9 May)

Event Time Altitude Azimuth Distance (km) Brightness Sun altitude
Rises 01:28:32 0° 185° (S) 3,633 6.8 -10.9°
Reaches altitude 10° 01:31:01 10° 186° (S) 2,685 6.1 -11.4°
Maximum altitude 01:37:10 87° 274° (W) 962 4.0 -12.5°
Drops below altitude 10° 01:43:20 10° 5° (N) 2,687 6.6 -13.7°
Sets 01:45:49 0° 6° (N) 3,636 7.3 -14.1°
